Flag for U.S.A. Weather past 2 weeks in Las Cruces, New Mexico, U.S.A.

Now
87 °F

Scattered clouds.


Feels Like: 84 °F
Forecast: 67 / 92 °F
Wind: 9 mph from East

Location: Las Cruces International

Current Time: Aug 29, 2014 at 12:37:00 PM

Latest Report: Aug 29, 2014 at 11:55 AM


Visibility: 10 mi

Pressure: 30.09 "Hg

Humidity: 23%

Dew point: 45 °F

Location of Las CrucesLocation

Historic Weather in Las Cruces — Graph

°F

Las Cruces temperature yesterday

Maximum temperature yesterday: 90 °F (at 3:15 PM)
Minimum temperature yesterday: 62 °F (at 6:55 AM)
Average temperature yesterday: 77 °F

Past Weeks' High & Low Weather Summary

 TemperatureHumidityPressure
High93 °F (Aug 16, 5:15 PM)96% (Aug 22, 5:35 AM)30.26 "Hg (Aug 22, 5:35 AM)
Low61 °F (Aug 23, 6:55 AM)17% (Aug 28, 3:15 PM)29.93 "Hg (Aug 19, 3:55 PM)
Average77 °F50%30.10 "Hg
* Reported Aug 14 11:15 AM — Aug 29 11:15 AM, Las Cruces, Weather by CustomWeather, © 2014

Note: Actual official high and low records may vary slightly from our data, if they occured in-between our weather recording intervals... More about our weather records

Advertising

Las Cruces weather history for previous 24 hours

 ConditionsComfort  
Time TempWeatherWind HumidityBarometerVisibility
11:15 AM
Aug 29
87 °FScattered clouds.7 mph21%30.10 "Hg10 mi
10:55 AM85 °FScattered clouds.8 mph22%30.10 "Hg10 mi
10:35 AM84 °FPartly sunny.8 mph23%30.10 "Hg10 mi
10:15 AM84 °FPartly sunny.7 mph23%30.10 "Hg10 mi
9:55 AM83 °FScattered clouds.7 mph23%30.10 "Hg10 mi
9:15 AM80 °FScattered clouds.7 mph28%30.08 "Hg10 mi
8:55 AM78 °FScattered clouds.8 mph29%30.08 "Hg10 mi
8:15 AM74 °FScattered clouds.No wind37%30.08 "Hg10 mi
7:55 AM72 °FSunny.No wind35%30.08 "Hg10 mi
7:15 AM72 °FOvercast.10 mph36%30.06 "Hg10 mi
6:55 AM71 °FOvercast.9 mph38%30.06 "Hg10 mi
6:35 AM71 °FOvercast.10 mph39%30.05 "Hg10 mi
6:15 AM71 °FOvercast.13 mph40%30.04 "Hg10 mi
5:55 AM71 °FOvercast.13 mph40%30.04 "Hg10 mi
5:35 AM71 °FPassing clouds.12 mph41%30.04 "Hg10 mi
5:15 AM70 °FPassing clouds.10 mph44%30.03 "Hg10 mi
4:55 AM67 °FPassing clouds.9 mph46%30.04 "Hg10 mi
4:15 AM66 °FPassing clouds.6 mph47%30.04 "Hg10 mi
3:55 AM66 °FClear.8 mph43%30.04 "Hg10 mi
3:15 AM69 °FClear.7 mph36%30.04 "Hg10 mi
2:55 AM71 °FClear.7 mph34%30.04 "Hg10 mi
2:35 AM70 °FClear.5 mph35%30.04 "Hg10 mi
2:15 AM70 °FClear.No wind36%30.04 "Hg10 mi
1:55 AM73 °FClear.7 mph32%30.04 "Hg10 mi
1:15 AM70 °FClear.8 mph38%30.05 "Hg10 mi
12:55 AM71 °FClear.6 mph37%30.06 "Hg10 mi
12:35 AM71 °FClear.6 mph37%30.06 "Hg10 mi
12:15 AM71 °FClear.5 mph38%30.06 "Hg10 mi
11:55 PM
Aug 28
71 °FClear.6 mph37%30.06 "Hg10 mi
11:15 PM72 °FClear.8 mph35%30.07 "Hg10 mi
10:55 PM72 °FPassing clouds.7 mph37%30.07 "Hg10 mi
10:35 PM73 °FClear.No wind35%30.07 "Hg10 mi
10:10 PM76 °FClear.No wind31%30.06 "Hg10 mi
9:55 PM79 °FClear.No wind28%30.06 "Hg10 mi
9:35 PM79 °FClear.3 mph28%30.06 "Hg10 mi
9:15 PM75 °FClear.No wind33%30.05 "Hg10 mi
8:55 PM76 °FClear.No wind32%30.04 "Hg10 mi
8:35 PM78 °FSunny.No wind30%30.04 "Hg10 mi
8:15 PM81 °FSunny.No wind27%30.03 "Hg10 mi
7:55 PM82 °FSunny.No wind26%30.03 "Hg10 mi
7:15 PM86 °FSunny.6 mph21%30.03 "Hg10 mi
6:55 PM87 °FSunny.7 mph20%30.03 "Hg10 mi
6:35 PM88 °FSunny.8 mph20%30.03 "Hg10 mi
6:15 PM89 °FSunny.8 mph19%30.03 "Hg10 mi
5:55 PM89 °FScattered clouds.6 mph18%30.03 "Hg10 mi
5:35 PM89 °FScattered clouds.8 mph19%30.03 "Hg10 mi
5:15 PM88 °FSunny.7 mph19%30.04 "Hg10 mi
4:55 PM89 °FScattered clouds.7 mph19%30.04 "Hg10 mi
4:35 PM88 °FScattered clouds.10 mph18%30.04 "Hg10 mi
4:15 PM88 °FScattered clouds.10 mph18%30.05 "Hg10 mi
3:55 PM89 °FScattered clouds.14 mph18%30.05 "Hg10 mi
3:35 PM90 °FPartly sunny.6 mph17%30.06 "Hg10 mi
3:15 PM90 °FPartly sunny.5 mph17%30.07 "Hg10 mi
2:55 PM87 °FSunny.3 mph18%30.08 "Hg10 mi
2:35 PM87 °FSunny.7 mph19%30.10 "Hg10 mi
2:15 PM88 °FSunny.5 mph20%30.11 "Hg10 mi
1:55 PM87 °FSunny.7 mph22%30.12 "Hg10 mi
1:35 PM85 °FSunny.3 mph24%30.12 "Hg10 mi
1:15 PM86 °FSunny.6 mph23%30.13 "Hg10 mi
12:55 PM85 °FSunny.7 mph24%30.14 "Hg10 mi
12:35 PM86 °FSunny.3 mph23%30.14 "Hg10 mi
12:15 PM85 °FSunny.No wind23%30.15 "Hg10 mi
Weather by CustomWeather, © 2014

See weather overviewHow to use our weather pages